Vertical_Velocity
-1 0 -0 1 1 -1 -1 -1 -1 -1 -0 0 -1 -2 -0 2 2 -2 3 2 -1 -2 5 2 4 1 1 0 -2 -2 -1 -1 -1 -0 0 1 2 1 0 0 -2 3 3 -3 4 3 -11 -5 2 11 -5 -0 7 7
0 0 -0 2 1 -0 -0 -0 -0 -2 -0 1 0 -2 -0 3 4 1 -6 6 1 -2 -3 2 -1 -6 -7 -3 -4 0 -2 2 -2 6 1 0 1 2 1 -6 0 -1 4 1 1 4 -11 -0 -0 -1 -1 -1 -3 5
1 1 0 1 0 1 0 -1 -0 -1 0 1 -1 -2 -0 4 7 -2 -2 6 4 -1 -1 -5 -0 7 -6 -2 5 -7 2 -1 4 3 8 6 -0 -1 -1 0 2 -4 6 16 6 -1 -1 -4 1 -3 -1 15 9 5
1 1 1 1 0 1 -0 -0 -0 -0 2 -0 -1 -1 -1 -1 0 5 3 3 7 -2 -7 4 -2 2 2 -10 -3 -1 7 -2 -4 3 -7 2 -1 -0 -2 1 2 -2 5 5 19 7 13 4 2 4 11 9 -0 3
-1 3 3 0 1 -0 0 1 1 1 2 1 -1 -1 -1 1 1 2 -1 -4 2 2 -3 -1 -1 3 -2 -0 3 1 4 4 2 -7 -5 0 2 -3 1 -4 6 1 -5 -1 -0 3 9 8 12 11 3 -4 6 2
-2 0 2 1 1 -0 1 0 0 -0 1 0 1 -0 1 -0 4 -1 32 -6 2 1 10 -0 1 0 -1 -1 -3 -2 2 -1 -2 -4 -2 -2 -1 1 3 -0 -3 2 -0 -1 1 9 4 4 2 -2 -5 0 0 -3
3 -2 1 1 -0 -0 0 1 0 1 1 2 2 1 2 4 -2 -8 -12 -7 4 0 12 4 -2 -1 0 0 -3 -3 -1 -2 4 1 -5 -3 2 11 5 2 -3 -1 2 2 8 4 4 2 -1 -3 -3 -5 2 -0
1 -1 0 1 1 1 1 1 3 2 1 2 2 1 5 19 26 -2 -1 6 5 5 7 -3 -0 0 2 -1 1 -1 0 4 4 0 0 2 2 11 1 -3 -2 1 1 0 1 -1 -2 0 0 -0 -0 -0 2 2
1 -0 0 1 1 1 2 1 1 4 2 -0 1 6 50 22 6 -11 15 5 2 4 -1 -3 -3 -6 1 -1 2 4 2 -0 2 -3 -1 2 2 -4 -5 -2 1 -0 -2 -3 -1 1 -1 1 1 -1 -2 0 2 2
0 0 -0 0 2 6 -1 -0 -0 1 3 11 18 5 44 -4 -1 15 30 6 9 23 1 -3 -3 -3 0 1 1 5 -1 -4 9 -3 0 1 -2 -1 -1 1 -1 -2 -3 -1 -1 2 -0 -1 -1 0 -2 -4 -4 -3
0 1 1 2 4 -0 2 -1 -1 -1 4 27 30 9 6 1 12 16 5 -0 -3 13 -6 2 0 3 3 -3 -3 -1 0 1 -1 -1 3 -1 -5 2 1 -1 -1 -0 0 1 -3 -4 -4 -2 -4 -4 -1 0 -0 -1
4 2 3 5 -2 1 0 -1 -3 5 10 2 -14 1 -3 9 10 0 -1 -4 -4 -3 -3 -2 0 3 -9 23 1 -7 4 11 4 2 3 -1 -4 -1 -1 -0 -1 -1 -1 -1 0 1 3 0 -1 -2 -3 -1 -1 -0
8 5 1 -2 2 1 2 1 1 0 1 10 1 2 -4 3 -0 -3 -5 -4 -7 -7 -5 -4 -2 -5 -2 14 8 -0 -2 6 2 2 1 -1 -0 0 1 1 0 1 1 -0 -0 0 0 0 1 1 0 -0 0 0
2 6 -1 2 3 1 -3 3 8 0 5 0 -4 3 6 2 -2 -5 -6 -5 -3 -3 2 -1 -2 -2 0 1 -1 -2 -1 -1 -1 -2 -1 1 1 0 -1 -0 0 0 -0 -0 0 -0 -1 -1 -1 -1 -1 -1 -1 -0
-1 2 4 1 0 -1 -2 -3 3 1 -3 -7 -0 -1 -2 -3 -4 -1 -0 -1 1 3 2 -6 -2 -2 -2 -3 -1 -1 -0 -0 -1 -2 -1 -1 1 1 1 -0 -1 -1 -1 -1 -1 -1 -1 -1 -1 -1 -1 -1 -1 -1
2 3 3 5 -0 4 -2 4 0 0 -1 -4 -2 -1 -1 0 0 -2 -0 1 2 1 1 2 -1 -2 -2 -0 -1 -1 -1 -1 -1 -1 -1 -2 -1 -2 -2 -1 -1 -1 -1 -1 -1 -1 -1 -1 -2 -2 -2 -1 -1 -0
3 1 8 0 11 4 0 3 -1 -0 1 0 -2 -0 -1 0 0 0 0 1 1 2 -1 -1 -3 -3 -1 -1 -2 -1 -2 -1 -2 -1 -0 -0 -1 -2 -2 -1 -1 -1 -0 -1 -2 -3 -2 -1 -1 -0 -0 -1 -1 -1
11 7 -2 -4 -4 1 3 1 1 -0 -2 0 -0 0 0 1 1 0 1 1 1 2 2 -1 -1 -1 -0 -1 -2 -1 -1 -1 -1 -2 -2 -2 -2 -1 -1 -2 -1 -1 -1 -1 -1 -2 -2 -1 -1 -0 -0 -0 -1 -2
7 8 4 4 18 -2 -2 -1 -0 -3 -4 0 0 -0 -1 -1 -0 1 1 2 2 2 0 2 1 -1 -3 -3 -1 -1 -2 -3 -2 -2 -1 -0 -0 0 -0 -2 -1 -2 -2 -1 -0 -1 -1 -1 -1 -1 -1 1 0 -0
-1 2 4 5 4 4 3 -1 3 2 -1 -2 -0 -1 0 0 1 1 1 -0 0 0 -1 -2 -3 -2 -1 -1 -2 -2 -2 -1 -1 -1 -2 -3 -2 -3 -1 -2 -2 -1 -1 -1 -1 -1 -1 -0 -0 -0 -1 -1 -1 -1
-0 1 2 -1 0 6 0 -0 -1 2 2 -2 -1 1 -0 1 -0 -0 -1 -1 -1 -3 -1 -2 -0 -0 -3 -1 -3 -0 -2 -3 -3 -2 -0 -0 -2 -2 -2 -2 -2 -0 -1 -2 -2 -1 0 1 1 0 -1 -1 -1 -1
-1 0 0 1 1 -1 2 2 1 -0 -1 -3 0 -1 -1 0 -0 -1 -1 -1 -1 0 0 1 1 -0 -2 -0 -2 -3 -2 -0 -0 -1 -3 -3 -2 -2 -2 -2 -1 -1 -1 -2 -2 -1 -1 -0 -1 -1 -0 -0 -0 -1
2 1 2 0 -1 -1 -2 1 0 -1 -1 -0 0 0 -1 -1 -1 -1 -2 -2 -0 -1 1 1 -2 -1 -1 -3 -1 0 0 -0 -1 -1 -2 -2 -2 -2 -2 -2 -2 -2 -1 -1 -1 -0 0 0 1 0 0 0 1 -0
2 -1 -2 -2 -1 -1 -1 -1 -1 -1 -1 -2 -1 -1 -1 -1 -1 -2 -3 -2 -2 1 0 -2 1 0 -1 1 1 1 0 -1 -3 -3 -3 -2 -1 -1 -0 0 1 0 -1 -1 -1 -1 -1 -0 -1 -1 -1 0 0 -1
-2 -3 -2 -2 -2 -1 -2 -1 -1 -1 -3 -2 -0 -1 -2 -1 -1 -2 -3 -2 -1 -1 -2 0 -2 -1 -1 0 -0 -1 -1 -2 -3 -2 -2 -1 -2 -2 -2 -3 -3 -0 -0 -2 -1 -0 -1 -1 -1 -0 0 0 -0 -0
-2 -3 -1 -2 0 -0 -1 0 0 -1 1 -1 -1 -1 -0 0 -1 -1 -2 -1 -0 2 4 0 2 3 1 -1 -1 -0 -1 -1 -0 -1 -1 -2 -3 -3 -3 -2 -2 -2 -2 -1 -1 -1 -1 -1 0 1 -0 -1 -0 0
-1 -1 -1 -1 0 0 -1 0 -1 -2 -2 -2 -1 -1 -1 -2 -2 -1 -1 -4 -1 2 -0 -1 -0 0 0 -0 -0 -0 -0 -1 -1 -1 -1 -1 -2 -1 -1 -1 0 0 -0 -1 -0 -1 -0 -1 -0 -0 -1 -1 -1 -1
-2 -1 -0 0 -0 -0 0 -0 -0 -1 -1 -1 -2 -2 -2 -2 0 1 1 1 -0 1 1 1 0 -1 1 1 -0 -1 -2 -2 -2 -2 -2 -2 -2 -1 -1 -1 -1 -0 0 0 0 -0 -0 -0 -1 -1 -1 -1 0 0
-0 -1 -1 -1 -1 -1 -1 -1 -1 -1 -0 -0 -1 1 0 0 -1 -1 1 3 3 0 1 2 3 2 0 -1 -1 -0 -1 -1 -2 -2 -2 -1 -2 -1 -1 -2 -1 -0 -0 -0 0 -0 -0 -0 0 0 0 0 0 1
-0 0 -1 -1 -1 -1 -1 -1 -1 1 0 1 1 1 0 0 1 0 -0 2 2 2 -0 -1 1 1 1 0 -0 -1 -1 -1 -1 -2 -2 -1 -2 -2 -2 -1 -1 -1 -2 -2 -1 -1 -0 -0 -0 -0 -0 -0 -1 -1
-1 -1 -1 -0 -1 -0 -1 -1 -1 -1 -1 -1 0 0 0 2 1 -1 -1 1 2 2 3 2 1 0 -0 -0 -0 -1 -1 -1 -0 -0 -0 -1 -1 -1 -1 -1 -1 -0 -0 -0 -0 0 1 0 0 0 -0 -0 0 0
0 -1 1 0 -1 -0 0 -0 -0 -0 1 1 1 1 1 1 2 3 4 3 2 2 1 0 -0 -1 -0 -0 -0 -1 -1 -1 -1 -2 -2 -1 -1 0 1 0 0 -0 -0 -0 -0 0 0 0 -0 -0 -0 0 0 0
-2 0 1 0 -0 -0 0 0 0 0 1 -0 -0 1 1 2 2 1 2 2 1 -1 -1 -0 -0 0 0 0 0 -0 -1 -1 -1 -1 -1 -1 -2 -1 -1 -1 -1 -1 -1 -1 -1 -1 -0 -0 -0 -0 -0 -1 -0 -0
Height
2924 2928 2932 2935 2937 2939 2940 2941 2942 2944 2946 2949 2952 2954 2956 2959 2962 2963 2966 2968 2968 2969 2971 2972 2973 2975 2977 2979 2980 2982 2984 2984 2983 2984 2984 2984 2984 2984 2984 2984 2983 2984 2983 2982 2981 2982 2979 2974 2975 2978 2979 2977 2977 2976
2915 2919 2922 2926 2929 2931 2932 2934 2936 2938 2940 2944 2947 2949 2952 2954 2957 2959 2961 2965 2966 2966 2969 2969 2970 2972 2975 2977 2980 2980 2982 2983 2984 2984 2983 2982 2982 2983 2982 2982 2981 2982 2982 2979 2979 2975 2972 2971 2973 2973 2974 2976 2975 2974
2905 2909 2913 2917 2920 2922 2924 2927 2929 2932 2935 2938 2941 2944 2947 2950 2953 2955 2957 2960 2963 2964 2966 2966 2968 2971 2972 2976 2978 2979 2981 2982 2982 2983 2980 2981 2982 2982 2981 2980 2979 2978 2976 2972 2973 2971 2970 2971 2972 2973 2974 2974 2973 2971
2895 2900 2904 2908 2911 2914 2916 2919 2922 2925 2929 2932 2936 2939 2942 2945 2949 2951 2953 2956 2960 2963 2963 2965 2966 2967 2969 2970 2974 2977 2979 2979 2979 2982 2980 2981 2981 2980 2980 2979 2978 2977 2972 2969 2967 2968 2968 2969 2971 2972 2970 2969 2972 2970
2887 2891 2896 2899 2903 2906 2908 2912 2915 2919 2922 2926 2930 2934 2937 2941 2944 2947 2949 2952 2956 2963 2961 2961 2962 2964 2965 2967 2970 2973 2976 2978 2979 2980 2980 2981 2980 2980 2978 2976 2973 2973 2972 2971 2968 2968 2968 2969 2968 2968 2969 2968 2967 2968
2879 2883 2887 2891 2894 2898 2901 2904 2908 2911 2915 2918 2922 2927 2931 2936 2940 2943 2943 2947 2951 2955 2959 2960 2962 2961 2963 2965 2967 2970 2973 2975 2977 2978 2978 2978 2979 2979 2976 2973 2972 2970 2970 2970 2968 2968 2968 2967 2968 2968 2968 2968 2968 2968
2871 2876 2880 2883 2887 2890 2893 2896 2900 2903 2906 2909 2913 2918 2924 2930 2932 2936 2940 2943 2947 2953 2956 2958 2959 2960 2961 2962 2964 2966 2969 2972 2975 2976 2975 2976 2976 2976 2973 2971 2970 2970 2970 2970 2969 2969 2969 2969 2968 2968 2968 2968 2967 2967
2864 2869 2873 2876 2880 2883 2885 2888 2890 2892 2894 2898 2903 2909 2916 2922 2925 2931 2937 2942 2945 2950 2953 2954 2955 2957 2958 2959 2961 2964 2967 2970 2971 2972 2972 2973 2973 2971 2969 2969 2968 2968 2968 2968 2968 2968 2968 2967 2967 2967 2966 2965 2963 2963
2859 2864 2867 2870 2874 2876 2877 2877 2879 2881 2884 2890 2896 2902 2907 2912 2918 2925 2935 2939 2941 2948 2947 2948 2951 2955 2955 2957 2960 2963 2965 2967 2969 2968 2968 2971 2968 2968 2967 2966 2965 2965 2966 2966 2966 2965 2964 2964 2963 2962 2961 2960 2959 2958
2855 2859 2862 2866 2868 2869 2870 2871 2872 2873 2877 2884 2891 2896 2900 2908 2917 2926 2930 2934 2939 2939 2942 2945 2949 2951 2954 2955 2957 2962 2963 2965 2964 2964 2964 2963 2963 2962 2962 2962 2962 2963 2963 2962 2961 2961 2960 2959 2957 2956 2955 2953 2953 2952
2852 2855 2858 2860 2863 2866 2868 2869 2869 2870 2871 2878 2887 2894 2898 2908 2917 2921 2924 2932 2936 2937 2937 2942 2946 2948 2951 2952 2955 2959 2960 2961 2960 2960 2961 2958 2957 2956 2956 2958 2958 2958 2958 2957 2957 2956 2954 2953 2952 2951 2949 2948 2946 2945
2849 2852 2854 2857 2861 2864 2866 2869 2871 2874 2877 2880 2884 2893 2902 2911 2915 2920 2923 2929 2931 2934 2934 2937 2942 2945 2947 2948 2952 2956 2956 2956 2955 2956 2956 2953 2951 2953 2953 2954 2954 2953 2952 2950 2948 2947 2946 2945 2944 2943 2942 2940 2939 2937
2848 2852 2854 2857 2862 2864 2868 2872 2876 2882 2885 2889 2895 2900 2906 2911 2913 2916 2919 2923 2926 2928 2930 2934 2940 2943 2943 2946 2949 2952 2952 2953 2953 2952 2950 2949 2949 2950 2950 2951 2951 2950 2949 2948 2947 2945 2943 2941 2939 2937 2935 2932 2931 2929
2849 2853 2856 2860 2864 2868 2871 2876 2880 2884 2889 2894 2898 2900 2903 2905 2908 2910 2914 2919 2924 2926 2929 2934 2938 2940 2942 2944 2946 2948 2949 2950 2949 2948 2946 2946 2946 2948 2949 2949 2948 2947 2947 2946 2944 2942 2941 2939 2938 2936 2934 2932 2930 2928
2851 2855 2859 2863 2866 2870 2875 2880 2883 2888 2891 2895 2897 2899 2901 2904 2907 2909 2914 2919 2923 2925 2930 2935 2938 2941 2942 2943 2944 2945 2946 2945 2945 2944 2944 2945 2946 2946 2946 2946 2946 2945 2944 2943 2942 2941 2940 2938 2936 2935 2933 2931 2929 2928
2853 2858 2862 2867 2870 2875 2878 2884 2888 2891 2895 2897 2898 2899 2901 2903 2906 2910 2915 2918 2922 2926 2930 2934 2937 2939 2940 2940 2941 2941 2942 2942 2942 2943 2944 2944 2945 2945 2945 2945 2944 2944 2943 2942 2941 2939 2938 2936 2934 2933 2931 2929 2928 2926
2857 2861 2865 2869 2874 2878 2883 2887 2890 2893 2895 2896 2897 2899 2901 2905 2907 2911 2915 2919 2922 2926 2929 2932 2934 2936 2937 2937 2938 2939 2940 2941 2942 2942 2942 2943 2943 2943 2944 2944 2943 2943 2942 2940 2939 2937 2935 2933 2931 2930 2928 2926 2924 2923
2861 2865 2869 2873 2878 2883 2886 2888 2890 2892 2894 2896 2898 2901 2903 2906 2909 2913 2916 2919 2923 2926 2929 2932 2933 2933 2934 2935 2936 2937 2938 2939 2940 2941 2942 2943 2943 2944 2944 2943 2942 2941 2940 2938 2936 2934 2932 2930 2928 2926 2924 2922 2920 2919
2865 2870 2874 2878 2882 2885 2886 2888 2891 2892 2894 2897 2899 2902 2904 2908 2911 2914 2917 2920 2923 2927 2930 2931 2932 2933 2934 2935 2935 2936 2938 2940 2941 2942 2943 2943 2944 2943 2943 2942 2941 2939 2936 2934 2932 2930 2928 2926 2924 2922 2920 2919 2917 2915
2869 2873 2878 2881 2883 2885 2886 2888 2889 2891 2894 2898 2901 2904 2907 2910 2913 2915 2918 2921 2924 2927 2930 2931 2932 2932 2933 2935 2936 2938 2940 2941 2942 2943 2943 2943 2943 2941 2940 2938 2936 2934 2931 2929 2927 2926 2923 2922 2920 2918 2916 2914 2912 2910
2873 2878 2881 2883 2886 2887 2887 2889 2890 2893 2897 2900 2903 2906 2909 2911 2914 2917 2919 2922 2926 2927 2929 2930 2930 2932 2933 2936 2938 2939 2941 2942 2942 2942 2941 2940 2939 2938 2937 2935 2933 2931 2929 2926 2924 2922 2920 2918 2915 2913 2911 2909 2907 2905
2877 2881 2885 2887 2888 2889 2890 2891 2894 2896 2899 2902 2905 2907 2910 2913 2915 2918 2921 2923 2925 2927 2928 2930 2931 2933 2935 2937 2938 2940 2940 2940 2940 2940 2939 2938 2937 2936 2934 2932 2930 2927 2925 2923 2920 2918 2915 2913 2910 2908 2906 2904 2902 2900
2881 2884 2887 2889 2891 2892 2895 2894 2897 2898 2902 2905 2907 2909 2911 2913 2916 2919 2921 2922 2924 2925 2928 2930 2933 2934 2936 2938 2939 2939 2939 2939 2939 2939 2938 2937 2935 2934 2932 2929 2926 2924 2921 2919 2916 2914 2911 2909 2906 2904 2902 2900 2898 2896
2884 2887 2889 2891 2892 2893 2895 2896 2898 2900 2902 2905 2907 2909 2911 2913 2915 2918 2919 2921 2924 2926 2929 2932 2933 2936 2937 2937 2937 2938 2939 2939 2938 2937 2936 2934 2932 2930 2928 2925 2923 2921 2918 2915 2913 2910 2907 2905 2902 2900 2898 2896 2895 2893
2888 2891 2892 2892 2893 2894 2895 2897 2899 2901 2902 2905 2907 2908 2910 2912 2914 2916 2917 2921 2924 2927 2930 2931 2933 2934 2935 2936 2937 2937 2937 2937 2936 2935 2933 2931 2929 2927 2925 2922 2920 2917 2915 2912 2909 2906 2903 2901 2899 2897 2895 2893 2892 2890
2888 2889 2891 2890 2892 2894 2895 2897 2899 2902 2904 2906 2908 2909 2911 2913 2915 2916 2918 2922 2925 2927 2929 2931 2933 2933 2933 2934 2935 2935 2936 2935 2934 2932 2931 2929 2927 2925 2922 2919 2916 2914 2911 2909 2906 2903 2900 2898 2896 2894 2892 2890 2889 2887
2887 2888 2889 2890 2892 2894 2896 2898 2900 2903 2904 2907 2908 2910 2913 2914 2914 2916 2919 2921 2923 2926 2928 2929 2930 2932 2933 2933 2934 2934 2933 2932 2931 2930 2928 2926 2923 2921 2918 2916 2913 2911 2908 2905 2902 2900 2898 2895 2893 2891 2889 2887 2885 2884
2887 2888 2889 2891 2893 2895 2896 2898 2900 2902 2904 2905 2908 2909 2911 2911 2913 2914 2916 2919 2921 2924 2926 2927 2929 2930 2932 2933 2933 2932 2931 2930 2929 2927 2925 2923 2920 2917 2915 2912 2909 2907 2904 2901 2899 2897 2895 2892 2890 2888 2886 2884 2882 2880
2886 2888 2889 2891 2893 2895 2896 2898 2900 2901 2903 2904 2905 2906 2908 2909 2910 2912 2915 2917 2919 2921 2924 2926 2928 2929 2930 2930 2930 2930 2929 2927 2926 2924 2922 2919 2916 2914 2911 2908 2905 2903 2900 2898 2896 2894 2891 2889 2887 2885 2883 2881 2879 2877
2886 2888 2889 2890 2892 2893 2895 2897 2898 2900 2901 2902 2904 2906 2907 2908 2909 2910 2912 2915 2917 2920 2921 2923 2925 2927 2928 2928 2928 2927 2926 2925 2923 2921 2918 2916 2913 2911 2908 2905 2903 2900 2897 2894 2892 2890 2888 2886 2884 2882 2880 2878 2875 2873
2886 2887 2889 2890 2890 2892 2893 2894 2896 2898 2899 2900 2902 2904 2905 2907 2907 2908 2909 2911 2914 2918 2920 2922 2924 2925 2926 2926 2925 2924 2923 2922 2920 2918 2915 2912 2909 2907 2904 2901 2899 2897 2894 2892 2890 2888 2886 2884 2881 2879 2876 2874 2871 2869
2884 2885 2886 2886 2888 2889 2890 2891 2893 2894 2896 2898 2899 2901 2903 2905 2906 2908 2908 2910 2913 2915 2917 2919 2921 2922 2923 2923 2922 2921 2920 2919 2916 2914 2911 2908 2906 2903 2901 2898 2896 2893 2892 2890 2887 2885 2883 2881 2878 2876 2873 2870 2867 2864
2880 2881 2881 2882 2883 2885 2887 2889 2890 2891 2893 2894 2896 2898 2900 2902 2903 2906 2907 2909 2911 2913 2916 2917 2919 2919 2920 2920 2920 2919 2917 2915 2913 2910 2908 2905 2902 2900 2897 2895 2893 2891 2889 2887 2885 2882 2880 2877 2875 2872 2869 2866 2864 2861